Location: Unspecified
(40.4972°N, 0.0000°E)
Time: 01:25:07
(UTC+00:00)

Tiros 1 despin weight - Visible Passes

Search period start: 05 April 2026 00:00
Search period end: 15 April 2026 00:00
Orbit: 555 x 593 km, 48.2° (Epoch: 29 March)

Date Brightness Start Highest point End Pass type
(mag) Time Alt. Az. Time Alt. Az. Time Alt. Az.
5 Apr ? 03:55:54 12° S 03:55:54 12° S 03:56:21 10° S visible
5 Apr ? 19:27:20 10° SSW 19:30:58 26° SE 19:32:57 19° E visible
5 Apr ? 21:06:57 10° WSW 21:09:10 29° W 21:09:10 29° W visible
6 Apr ? 19:28:50 10° SSW 19:32:51 40° SE 19:36:07 15° ENE visible
6 Apr ? 21:09:10 10° W 21:12:20 40° WNW 21:12:20 40° WNW visible
7 Apr ? 19:30:34 10° SW 19:34:49 61° SE 19:38:59 11° ENE visible
7 Apr ? 21:11:27 10° W 21:15:09 39° NNW 21:15:09 39° NNW visible
8 Apr ? 19:32:30 10° WSW 19:36:50 89° SE 19:41:13 10° ENE visible
8 Apr ? 21:13:46 10° WNW 21:17:42 34° NNW 21:17:42 34° NNW visible
9 Apr ? 19:34:35 10° WSW 19:38:52 66° NNW 19:43:13 10° ENE visible
9 Apr ? 21:16:05 10° WNW 21:19:58 31° N 21:20:02 31° N visible
10 Apr ? 19:36:46 10° W 19:40:58 49° NNW 19:45:14 10° NE visible
10 Apr ? 21:18:22 10° WNW 21:22:12 29° N 21:22:12 29° N visible
11 Apr ? 19:39:01 10° W 19:43:06 39° NNW 19:47:13 10° NE visible
11 Apr ? 21:20:34 10° WNW 21:24:14 29° N 21:24:14 29° N visible
12 Apr ? 19:41:19 10° WNW 19:45:15 34° NNW 19:49:15 10° NE visible
12 Apr ? 21:22:41 10° NW 21:26:11 31° N 21:26:11 31° N visible
13 Apr ? 19:43:35 10° WNW 19:47:26 30° N 19:51:19 10° NE visible
13 Apr ? 21:24:45 10° NW 21:28:04 33° N 21:28:04 33° N visible
14 Apr ? 19:45:49 10° WNW 19:49:37 29° N 19:53:28 10° ENE visible
14 Apr ? 21:26:44 10° NW 21:29:53 36° NNW 21:29:53 36° NNW visible
